Tracking 27086 objects as of 22-Mar-2023
HD Live streaming from Space Station
objects crossing your sky now

STARLINK-3583

Track STARLINK-3583 now!
10-day predictions
STARLINK-3583 is classified as:


NORAD ID: 51876
Int'l Code: 2022-022AA
Perigee: 545.8 km
Apogee: 547.9 km
Inclination: 53.2 °
Period: 95.4 minutes
Semi major axis: 6917 km
RCS: Unknown
Launch date: March 3, 2022
Source: United States (US)
Launch site: AIR FORCE EASTERN TEST RANGE (AFETR)
Your satellite tracking list
Your tracking list is empty




NASA's NSSDC Master Catalog

Two Line Element Set (TLE):
1 51876U 22022AA  23081.51563394  .00001021  00000-0  82216-4 0  9992
2 51876  53.2165 191.6792 0001506  68.5494 291.5659 15.08840080 59593
Source of the keplerian elements: AFSPC